Torna al catalogo

FENGYUN 1C DEB

AttivoPO
NORAD 30907·DEBRIS·🇨🇳 China

Lanciato May 10, 1999 da Taiyuan Satellite Launch Center

Loading…

Prossimi Passaggi (prossime 24 ore)

TLE

In scadenzaSource: Space-Track

Epoca: Sep 4, 2026, 23:31 UTC

1 30907U 99025AYV 26247.98025531  .00000759  00000-0  40596-3 0  9996
2 30907  99.9295 303.3625 0057759 126.3350 234.3172 14.15866828 53165

Traccia FENGYUN 1C DEB in tempo reale con AllMySat

Download on the App Store